Regional Weather Roundup
Issued by NWS Green Bay, WI

Home | Current Version | Previous Version | Graphics & Text | Print | Product List | Glossary Off
Versions: 1 2 3 4 5 6 7 8 9 10 11 12 13 14 15 16 17 18 19 20 21 22 23 24 25 26 27 28 29 30 31 32 33 34 35 36 37 38 39 40 41 42 43 44 45 46 47 48 49 50

000
ASUS43 KGRB 051059
RWRGRB

NORTH-CENTRAL AND NORTHEAST WISCONSIN REGIONAL WEATHER ROUNDUP
NATIONAL WEATHER SERVICE GREEN BAY WI
500 AM CST THU MAR 05 2015

WIZ005-009-010>012-018-019-051200-
NORTH CENTRAL WISCONSIN

CITY           SKY/WX    TMP DP  RH WIND       PRES   REMARKS
IRONWOOD       CLEAR     -9 -15  77 SW5       30.29S WCI -21
MANITOWISH WTR NOT AVBL
ARBOR VITAE    NOT AVBL
EAGLE RIVER    NOT AVBL
LAND O LAKES   NOT AVBL
RHINELANDER    CLEAR    -19 -25  73 W3        30.28R
PHILLIPS       NOT AVBL
ANTIGO         NOT AVBL
TOMAHAWK       NOT AVBL
MERRILL        NOT AVBL
$$

WIZ013-073-051200-
NORTHEAST WISCONSIN

CITY           SKY/WX    TMP DP  RH WIND       PRES   REMARKS
IRON MOUNTAIN  CLEAR    -14 -20  74 CALM      30.30R
MARINETTE      CLEAR     -8 -15  71 NW3       30.36R
$$

WIZ017-030-035>037-045-051200-
CENTRAL WISCONSIN

CITY           SKY/WX    TMP DP  RH WIND       PRES   REMARKS
MEDFORD        NOT AVBL
WAUSAU         CLEAR     -8 -16  67 NW8       30.33R WCI -24
MOSINEE        NOT AVBL
MARSHFIELD     CLEAR     -9 -17  68 NW6       30.35R WCI -22
WISC RAPIDS    CLEAR    -11 -18  71 CALM      30.39R
STEVENS POINT  NOT AVBL
WAUPACA        NOT AVBL
SHAWANO        NOT AVBL
CLINTONVILLE   NOT AVBL
$$

WIZ038-039-048-051-051200-
FOX VALLEY

CITY           SKY/WX    TMP DP  RH WIND       PRES   REMARKS
NWS GREEN BAY  CLEAR     -6 -14  68 NW8       30.38R WCI -21
APPLETON       NOT AVBL
OSHKOSH        CLEAR     -2 -12  62 W5        30.37S WCI -12
FOND DU LAC    FLURRIES  -2 -12  62 NW6       30.38R WCI -14
$$

WIZ022-050-052-051200-
EAST CENTRAL WISCONSIN

CITY           SKY/WX    TMP DP  RH WIND       PRES   REMARKS
STURGEON BAY   CLEAR     -6 -15  65 CALM      30.37R
MANITOWOC      NOT AVBL
SHEBOYGAN      CLEAR     -1 -12  59 NW6       30.37S WCI -13
$$

LMZ563-521-522-541>543-051200-
LAKESHORE

STATION/POSITION TIME  TEMP    WIND        PRES    VSBY  WAVE
                       AIR SEA DIR/SP/G                  HT/PER
                 (UTC) (F)     (DEG/KT/KT) (MB)    (MI)  (FT/S)
SHEBOYGAN LKSHOR 1000    4     310/ 10/ 12 1030.4R
KEWAUNEE LKSHORE 1000   -4     300/  7/  8 1027.4S
NORTHPORT PIER   1000   -2     280/  7/ 12 1028.1
CHAMBERS ISLAND  1000   -5     230/  2/  5 1027.8S
MENOMINEE LKSHOR 1000   -3     280/  6     1028.7R
$$



USA.gov is the U.S. government's official web portal to all federal, state and local government web resources and services.